Location: Pardubice
(50.0330°N, 15.7830°E)
Time: 10:03:51
(UTC+02:00)

Explorer 7 - Visible Passes

Search period start: 07 October 2024 00:00
Search period end: 17 October 2024 00:00
Orbit: 460 x 607 km, 50.3° (Epoch: 06 October)

Date Brightness Start Highest point End Pass type
(mag) Time Alt. Az. Time Alt. Az. Time Alt. Az.
07 Oct 7.5 18:55:33 10° SW 18:59:40 42° SSE 19:03:38 10° E visible
07 Oct 6.7 20:34:42 10° W 20:39:00 89° S 20:39:02 88° ESE visible
08 Oct 6.7 20:23:46 10° W 20:28:04 88° N 20:28:31 70° E visible
08 Oct 9.9 22:03:25 10° W 22:03:49 12° W 22:03:49 12° W visible
09 Oct 6.7 20:12:47 10° W 20:17:06 86° N 20:17:57 56° E visible
09 Oct 9.7 21:52:25 10° W 21:53:14 15° W 21:53:14 15° W visible
10 Oct 6.8 20:01:46 10° W 20:06:06 85° N 20:07:18 46° E visible
10 Oct 9.4 21:41:24 10° W 21:42:35 18° W 21:42:35 18° W visible
11 Oct 6.8 19:50:42 10° W 19:55:02 85° N 19:56:36 38° E visible
11 Oct 9.2 21:30:19 10° W 21:31:53 21° W 21:31:53 21° W visible
12 Oct 6.8 19:39:35 10° W 19:43:56 86° N 19:45:52 31° E visible
12 Oct 8.9 21:19:12 10° W 21:21:09 25° W 21:21:09 25° W visible
13 Oct 6.8 19:28:25 10° W 19:32:48 88° NNE 19:35:06 26° E visible
13 Oct 8.6 21:08:03 10° W 21:10:23 29° W 21:10:23 29° W visible
14 Oct 6.8 19:17:13 10° W 19:21:35 90° S 19:24:19 21° E visible
14 Oct 8.4 20:56:51 10° W 20:59:36 32° WSW 20:59:36 32° WSW visible
15 Oct 6.9 19:05:57 10° W 19:10:20 86° SSW 19:13:32 17° ESE visible
15 Oct 8.2 20:45:37 10° W 20:48:48 34° SW 20:48:48 34° SW visible
16 Oct 6.9 18:54:39 10° W 18:59:02 82° SSW 19:02:45 13° ESE visible
16 Oct 8.1 20:34:22 10° W 20:38:02 33° SW 20:38:02 33° SW visible
